ATLAS 5 CENTAUR DEB, 49340

Orbit data source: Space-Track

ATLAS 5 CENTAUR DEB, 49340 is space debris in HEO originally from a launch on Wed, 17 Oct 2018 UTC launched from the Air Force Eastern Test Range (AFETR). Debris objects in space refer to the collection of defunct objects orbiting the Earth. Examples of debris include non-operational satellites, rocket bodies, and fragments generated from explosions, collisions, or faulty payload assembly.

Loading next visibility...
Identifier
49340, 2018-079ER
Orbit
HEO
Country
Flag of USUS
Related business
Flag of USUnited Launch Alliance/Lockheed Martin (US)
Manufacturer
ULA Decatur
Mission
Spacecraft
Bus & Motor
Unknown
Mass
Unknown
Launch date (UTC)
2018-10-17 (8 years ago)
Launch vehicle
Unknown
Launch site
Air Force Eastern Test Range (AFETR)
Object type
Payload
Rocket body
Debris
Shape & HBR
Unknown shape, 1.1 m
Radar Cross Section
RCS unknown

Expand to show TLE details & history
Last TLE update: 1 day ago

TLE from 1 day ago
0 ATLAS 5 CENTAUR DEB
1 49340U 18079ER  26127.21719859 -.00000082  00000-0  00000-0 0  9996
2 49340  13.6993  41.4831 4762388 293.9646  24.0409  1.76319234 30188
Epoch: 2026-05-07T05:12Z
TLE epoch observation values (Epoch: 2026-05-07T05:12:45.958Z)
Latitude
0.00004°
Longitude
98.15599°
Altitude
12,386.01 km
Speed
5.358 km/s
True Right ascension
02h 45m 39s
True Declination
0° 00' 00"
Sunlit
Object was in daylight at epoch
Visualization orbit readout
Latitude
Unknown
Longitude
Unknown
Altitude
Unknown
Speed
Unknown
Apparent Right ascension
Unknown
Apparent Declination
Unknown
Sunlit
N/A
Visualization observer readout
Local Sidereal Time
12:53:33
Azimuth
Unknown
Elevation
Unknown
Doppler factor
Unknown
Orbital elements
Apogee altitude
36,350.892 km
Perigee altitude
8,781.881 km
Semi-major axis
28,944.524 km
Eccentricity
0.47624
Inclination
13.6993°
RAAN
41.4831°
Arg. of periapsis
293.9646°
True anomaly
66.22708°
Mean anomaly
24.0409°
Eccentric anomaly
42.46204°
Mean motion
0.44075 °/min
Orbital period
816.79 mins
BSTAR
0
Loading maneuver chart data...
Computing Atmospheric mass density...

Documentation

Showing up to 5 results
|